When you browse on this site, cookies collect data to enhance your experience and personalize the content and advertising you see.
Visit our Privacy Policy to learn more. By continuing to use the site, you agree to this use of cookies and data.
  • In Portugal
  • List of Countries
  • For 7 days
  • Water Temperature
  • Satellite Maps
  • Weather Map
  • Weather Widgets
  • user-avatar
    Login

    Hourly Weather Sofia

    Today, 11 December, Tuesday

    Time Temperature Precipitation Wind Pressure Humidity
    00:00 -1°C° 0 mm 3 mps 706 mmHg 88%
    01:00 -1°C° 0 mm 2 mps 706 mmHg 89%
    02:00 -2°C° 0 mm 2 mps 706 mmHg 90%
    03:00 -2°C° 0 mm 2 mps 706 mmHg 89%
    04:00 -2°C° 0 mm 2 mps 706 mmHg 89%
    05:00 -2°C° 0 mm 2 mps 706 mmHg 88%
    06:00 -3°C° 0 mm 2 mps 706 mmHg 88%
    07:00 -3°C° 0 mm 2 mps 707 mmHg 88%
    08:00 -3°C° 0 mm 2 mps 707 mmHg 88%
    09:00 -2°C° 0 mm 2 mps 707 mmHg 82%
    10:00 -1°C° 0 mm 3 mps 708 mmHg 77%
    11:00 0°C° 0 mm 3 mps 708 mmHg 72%
    12:00 0°C° 0 mm 3 mps 708 mmHg 70%
    13:00 +1°C° 0 mm 3 mps 708 mmHg 69%
    14:00 +1°C° 0 mm 3 mps 708 mmHg 68%
    15:00 0°C° 0 mm 3 mps 708 mmHg 72%
    16:00 -1°C° 0 mm 2 mps 708 mmHg 76%
    17:00 -2°C° 0 mm 2 mps 708 mmHg 80%
    18:00 -2°C° 0 mm 2 mps 709 mmHg 81%
    19:00 -3°C° 0 mm 2 mps 709 mmHg 83%
    20:00 -1°C° 0 mm 1 mps 709 mmHg 85%
    21:00 -1°C° 0 mm 1 mps 709 mmHg 85%
    22:00 -3°C° 0 mm 2 mps 709 mmHg 85%
    23:00 -3°C° 0 mm 2 mps 710 mmHg 86%

    Tomorrow, 12 December, Wednesday

    Time Temperature Precipitation Wind Pressure Humidity
    00:00 -2°C° 0 mm 1 mps 710 mmHg 86%
    01:00 -2°C° 0 mm 1 mps 710 mmHg 86%
    02:00 -2°C° 0 mm 1 mps 710 mmHg 87%
    03:00 -2°C° 0.1 mm 1 mps 710 mmHg 86%
    04:00 -4°C° 0.1 mm 2 mps 710 mmHg 86%
    05:00 -3°C° 0.1 mm 2 mps 710 mmHg 86%
    06:00 -4°C° 0 mm 2 mps 710 mmHg 86%
    07:00 -4°C° 0 mm 2 mps 710 mmHg 86%
    08:00 -4°C° 0 mm 2 mps 711 mmHg 86%
    09:00 -2°C° 0 mm 2 mps 711 mmHg 81%
    10:00 -1°C° 0 mm 2 mps 711 mmHg 76%
    11:00 +1°C° 0 mm 2 mps 711 mmHg 71%
    12:00 +1°C° 0 mm 2 mps 711 mmHg 69%
    13:00 +1°C° 0 mm 3 mps 711 mmHg 68%
    14:00 +1°C° 0 mm 3 mps 711 mmHg 66%
    15:00 +1°C° 0 mm 2 mps 711 mmHg 71%
    16:00 -1°C° 0 mm 2 mps 711 mmHg 75%
    17:00 -2°C° 0 mm 2 mps 711 mmHg 80%
    18:00 -3°C° 0 mm 2 mps 711 mmHg 80%
    19:00 -3°C° 0 mm 2 mps 711 mmHg 80%
    20:00 -4°C° 0 mm 2 mps 711 mmHg 81%
    21:00 -4°C° 0 mm 2 mps 711 mmHg 80%
    22:00 -4°C° 0 mm 2 mps 712 mmHg 79%
    23:00 -4°C° 0 mm 2 mps 712 mmHg 79%

    Day after tomorrow, 13 December, Thursday

    Time Temperature Precipitation Wind Pressure Humidity
    00:00 -4°C° 0 mm 2 mps 712 mmHg 78%
    01:00 -4°C° 0 mm 2 mps 712 mmHg 77%
    02:00 -2°C° 0 mm 1 mps 712 mmHg 76%
    03:00 -2°C° 0 mm 1 mps 711 mmHg 75%
    04:00 -2°C° 0 mm 1 mps 711 mmHg 74%
    05:00 -3°C° 0 mm 1 mps 711 mmHg 73%
    06:00 -3°C° 0 mm 1 mps 711 mmHg 72%
    07:00 -3°C° 0 mm 1 mps 711 mmHg 71%
    08:00 -3°C° 0 mm 1 mps 711 mmHg 70%
    09:00 -1°C° 0 mm 1 mps 711 mmHg 65%
    10:00 +1°C° 0 mm 1 mps 711 mmHg 60%
    11:00 +2°C° 0 mm 1 mps 712 mmHg 56%
    12:00 +3°C° 0 mm 1 mps 711 mmHg 54%
    13:00 +3°C° 0 mm 1 mps 711 mmHg 53%
    14:00 +4°C° 0 mm 1 mps 710 mmHg 52%
    15:00 +3°C° 0.1 mm 1 mps 710 mmHg 59%
    16:00 +2°C° 0.1 mm 1 mps 709 mmHg 66%
    17:00 +1°C° 0.1 mm 1 mps 709 mmHg 73%
    18:00 0°C° 0.7 mm 1 mps 709 mmHg 79%
    19:00 0°C° 0.7 mm 1 mps 709 mmHg 85%
    20:00 0°C° 0.7 mm 1 mps 709 mmHg 91%
    21:00 0°C° 0.6 mm 1 mps 709 mmHg 92%
    22:00 0°C° 0.6 mm 1 mps 709 mmHg 92%
    23:00 0°C° 0.6 mm 1 mps 709 mmHg 93%

    14 December, Friday

    Time Temperature Precipitation Wind Pressure Humidity
    00:00 0°C° 0.3 mm 1 mps 709 mmHg 93%
    01:00 0°C° 0.3 mm 1 mps 709 mmHg 93%
    02:00 0°C° 0.3 mm 1 mps 709 mmHg 93%
    03:00 -1°C° 0 mm 1 mps 709 mmHg 93%
    04:00 -1°C° 0 mm 1 mps 709 mmHg 93%
    05:00 -1°C° 0 mm 1 mps 710 mmHg 93%
    06:00 -2°C° 0 mm 1 mps 710 mmHg 93%
    07:00 -2°C° 0 mm 1 mps 710 mmHg 93%
    08:00 -2°C° 0 mm 1 mps 711 mmHg 93%
    09:00 -1°C° 0 mm 1 mps 711 mmHg 89%
    10:00 +1°C° 0 mm 1 mps 712 mmHg 85%
    11:00 +2°C° 0 mm 1 mps 712 mmHg 82%
    12:00 +3°C° 0 mm 1 mps 712 mmHg 81%
    13:00 +3°C° 0 mm 1 mps 712 mmHg 80%
    14:00 +4°C° 0 mm 1 mps 712 mmHg 79%
    15:00 +2°C° 0 mm 1 mps 712 mmHg 82%
    16:00 +1°C° 0 mm 1 mps 712 mmHg 86%
    17:00 0°C° 0 mm 1 mps 712 mmHg 89%
    18:00 0°C° 0 mm 1 mps 713 mmHg 90%
    19:00 -1°C° 0 mm 1 mps 713 mmHg 90%
    20:00 -1°C° 0 mm 1 mps 713 mmHg 91%
    21:00 -1°C° 0 mm 1 mps 713 mmHg 90%
    22:00 -1°C° 0 mm 1 mps 714 mmHg 90%
    23:00 0°C° 0 mm 1 mps 714 mmHg 90%

    15 December, Saturday

    Time Temperature Precipitation Wind Pressure Humidity
    00:00 0°C° 0 mm 1 mps 714 mmHg 90%
    01:00 0°C° 0 mm 1 mps 714 mmHg 90%
    02:00 0°C° 0 mm 1 mps 714 mmHg 90%
    03:00 0°C° 0.3 mm 1 mps 714 mmHg 91%
    04:00 +1°C° 0.3 mm 1 mps 714 mmHg 92%
    05:00 +1°C° 0.3 mm 1 mps 714 mmHg 93%
    06:00 +1°C° 0.4 mm 1 mps 714 mmHg 94%
    07:00 +1°C° 0.4 mm 1 mps 714 mmHg 94%
    08:00 +1°C° 0.4 mm 1 mps 714 mmHg 94%
    09:00 +1°C° 0.4 mm 1 mps 714 mmHg 93%
    10:00 +2°C° 0.4 mm 1 mps 714 mmHg 92%
    11:00 +2°C° 0.4 mm 1 mps 714 mmHg 91%
    12:00 +1°C° 0.4 mm 2 mps 714 mmHg 91%
    13:00 +2°C° 0.4 mm 2 mps 714 mmHg 91%
    14:00 +2°C° 0.4 mm 2 mps 714 mmHg 92%
    15:00 +1°C° 0.4 mm 2 mps 714 mmHg 93%
    16:00 +1°C° 0.4 mm 2 mps 714 mmHg 94%
    17:00 -1°C° 0.4 mm 2 mps 714 mmHg 95%
    18:00 +1°C° 0.4 mm 1 mps 714 mmHg 95%
    19:00 +1°C° 0.4 mm 1 mps 714 mmHg 95%
    20:00 0°C° 0.4 mm 1 mps 714 mmHg 95%
    21:00 0°C° 0.4 mm 1 mps 714 mmHg 95%
    22:00 0°C° 0.4 mm 1 mps 714 mmHg 95%
    23:00 0°C° 0.4 mm 1 mps 714 mmHg 95%

    16 December, Sunday

    Time Temperature Precipitation Wind Pressure Humidity
    00:00 0°C° 0.4 mm 1 mps 714 mmHg 95%
    01:00 0°C° 0.4 mm 1 mps 714 mmHg 95%
    02:00 0°C° 0.4 mm 1 mps 714 mmHg 95%
    03:00 0°C° 0.3 mm 1 mps 713 mmHg 95%
    04:00 -2°C° 0.3 mm 2 mps 713 mmHg 95%
    05:00 -2°C° 0.3 mm 2 mps 713 mmHg 95%
    06:00 -2°C° 0.4 mm 2 mps 714 mmHg 95%
    07:00 -2°C° 0.4 mm 2 mps 714 mmHg 95%
    08:00 -3°C° 0.4 mm 2 mps 714 mmHg 95%
    09:00 -2°C° 0.7 mm 2 mps 714 mmHg 94%
    10:00 -2°C° 0.7 mm 2 mps 715 mmHg 93%
    11:00 -2°C° 0.7 mm 2 mps 715 mmHg 93%
    12:00 -2°C° 0.5 mm 2 mps 715 mmHg 92%
    13:00 -2°C° 0.5 mm 2 mps 715 mmHg 92%
    14:00 -1°C° 0.5 mm 2 mps 714 mmHg 91%
    15:00 -2°C° 0.1 mm 2 mps 715 mmHg 92%
    16:00 -2°C° 0.1 mm 2 mps 715 mmHg 93%
    17:00 -1°C° 0.1 mm 1 mps 715 mmHg 93%
    18:00 -1°C° 0 mm 1 mps 715 mmHg 93%
    19:00 -2°C° 0 mm 1 mps 715 mmHg 93%
    20:00 -2°C° 0 mm 1 mps 716 mmHg 94%
    21:00 -2°C° 0 mm 1 mps 716 mmHg 94%
    22:00 -3°C° 0 mm 1 mps 716 mmHg 93%
    23:00 -3°C° 0 mm 1 mps 716 mmHg 93%
    Show more